When you browse on this site, cookies collect data to enhance your experience and personalize the content and advertising you see.
Visit our Privacy Policy to learn more. By continuing to use the site, you agree to this use of cookies and data.
  • In Italy
  • List of Countries
  • For 7 days
  • Water Temperature
  • Satellite Maps
  • Weather Map
  • Weather Widgets
  • user-avatar
    Login

    Hourly Weather Bagna

    Today, 23 July, Tuesday

    Time Temperature Precipitation Wind Pressure Humidity
    00:00 +17°C° 0 mm 2 mps 754 mmHg 76%
    01:00 +17°C° 0 mm 2 mps 753 mmHg 76%
    02:00 +16°C° 0.2 mm 1 mps 753 mmHg 81%
    03:00 +16°C° 0.2 mm 1 mps 753 mmHg 86%
    04:00 +15°C° 0.2 mm 1 mps 753 mmHg 91%
    05:00 +15°C° 0.1 mm 1 mps 753 mmHg 91%
    06:00 +16°C° 0.1 mm 1 mps 753 mmHg 92%
    07:00 +16°C° 0.1 mm 1 mps 753 mmHg 93%
    08:00 +16°C° 0.5 mm 1 mps 753 mmHg 94%
    09:00 +16°C° 0.5 mm 1 mps 753 mmHg 95%
    10:00 +16°C° 0.5 mm 1 mps 753 mmHg 96%
    11:00 +18°C° 0.1 mm 1 mps 753 mmHg 95%
    12:00 +18°C° 0.1 mm 2 mps 753 mmHg 94%
    13:00 +18°C° 0.1 mm 2 mps 753 mmHg 92%
    14:00 +19°C° 0 mm 2 mps 753 mmHg 91%
    15:00 +19°C° 0 mm 2 mps 753 mmHg 90%
    16:00 +20°C° 0 mm 3 mps 753 mmHg 88%
    17:00 +20°C° 0 mm 2 mps 753 mmHg 89%
    18:00 +20°C° 0 mm 2 mps 752 mmHg 89%
    19:00 +20°C° 0 mm 2 mps 752 mmHg 89%
    20:00 +19°C° 0 mm 2 mps 752 mmHg 92%
    21:00 +18°C° 0 mm 2 mps 753 mmHg 94%
    22:00 +17°C° 0 mm 2 mps 753 mmHg 96%
    23:00 +18°C° 0 mm 1 mps 753 mmHg 97%

    Tomorrow, 24 July, Wednesday

    Time Temperature Precipitation Wind Pressure Humidity
    00:00 +16°C° 0 mm 1 mps 753 mmHg 97%
    01:00 +16°C° 0 mm 1 mps 753 mmHg 97%
    02:00 +16°C° 0.1 mm 1 mps 752 mmHg 97%
    03:00 +18°C° 0.1 mm 1 mps 752 mmHg 97%
    04:00 +18°C° 0.1 mm 1 mps 752 mmHg 97%
    05:00 +19°C° 0 mm 1 mps 752 mmHg 94%
    06:00 +20°C° 0 mm 1 mps 752 mmHg 91%
    07:00 +21°C° 0 mm 1 mps 752 mmHg 88%
    08:00 +23°C° 0.1 mm 1 mps 752 mmHg 81%
    09:00 +24°C° 0.1 mm 1 mps 753 mmHg 75%
    10:00 +26°C° 0.1 mm 1 mps 753 mmHg 68%
    11:00 +27°C° 0.2 mm 1 mps 753 mmHg 64%
    12:00 +27°C° 0.2 mm 1 mps 753 mmHg 61%
    13:00 +28°C° 0.2 mm 2 mps 752 mmHg 57%
    14:00 +28°C° 0.2 mm 2 mps 752 mmHg 58%
    15:00 +28°C° 0.2 mm 2 mps 752 mmHg 59%
    16:00 +27°C° 0.2 mm 3 mps 752 mmHg 60%
    17:00 +26°C° 0.1 mm 2 mps 752 mmHg 66%
    18:00 +25°C° 0.1 mm 2 mps 752 mmHg 71%
    19:00 +24°C° 0.1 mm 2 mps 752 mmHg 76%
    20:00 +21°C° 0 mm 2 mps 752 mmHg 78%
    21:00 +20°C° 0 mm 2 mps 753 mmHg 81%
    22:00 +19°C° 0 mm 2 mps 753 mmHg 83%
    23:00 +18°C° 0 mm 2 mps 753 mmHg 83%

    Day after tomorrow, 25 July, Thursday

    Time Temperature Precipitation Wind Pressure Humidity
    00:00 +18°C° 0 mm 2 mps 753 mmHg 84%
    01:00 +19°C° 0 mm 1 mps 753 mmHg 84%
    02:00 +18°C° 0 mm 1 mps 753 mmHg 85%
    03:00 +18°C° 0 mm 1 mps 753 mmHg 87%
    04:00 +16°C° 0 mm 1 mps 753 mmHg 89%
    05:00 +19°C° 0 mm 1 mps 753 mmHg 82%
    06:00 +19°C° 0 mm 2 mps 753 mmHg 76%
    07:00 +21°C° 0 mm 2 mps 753 mmHg 70%
    08:00 +23°C° 0 mm 2 mps 753 mmHg 64%
    09:00 +25°C° 0 mm 2 mps 754 mmHg 58%
    10:00 +26°C° 0 mm 2 mps 754 mmHg 52%
    11:00 +27°C° 0 mm 2 mps 754 mmHg 50%
    12:00 +28°C° 0 mm 2 mps 753 mmHg 48%
    13:00 +28°C° 0 mm 2 mps 753 mmHg 45%
    14:00 +28°C° 0 mm 3 mps 753 mmHg 46%
    15:00 +28°C° 0 mm 3 mps 753 mmHg 47%
    16:00 +28°C° 0 mm 4 mps 753 mmHg 47%
    17:00 +26°C° 0 mm 4 mps 753 mmHg 53%
    18:00 +24°C° 0 mm 3 mps 753 mmHg 59%
    19:00 +21°C° 0 mm 3 mps 753 mmHg 65%
    20:00 +20°C° 0 mm 3 mps 753 mmHg 71%
    21:00 +18°C° 0 mm 2 mps 753 mmHg 77%
    22:00 +17°C° 0 mm 2 mps 753 mmHg 83%
    23:00 +16°C° 0 mm 2 mps 753 mmHg 85%

    26 July, Friday

    Time Temperature Precipitation Wind Pressure Humidity
    00:00 +16°C° 0 mm 2 mps 753 mmHg 86%
    01:00 +16°C° 0 mm 2 mps 753 mmHg 88%
    02:00 +16°C° 0 mm 2 mps 753 mmHg 89%
    03:00 +15°C° 0 mm 2 mps 753 mmHg 91%
    04:00 +15°C° 0 mm 2 mps 753 mmHg 92%
    05:00 +17°C° 0 mm 3 mps 753 mmHg 85%
    06:00 +19°C° 0 mm 3 mps 753 mmHg 78%
    07:00 +21°C° 0 mm 3 mps 753 mmHg 70%
    08:00 +22°C° 0 mm 4 mps 753 mmHg 64%
    09:00 +25°C° 0 mm 4 mps 753 mmHg 59%
    10:00 +26°C° 0 mm 4 mps 753 mmHg 53%
    11:00 +26°C° 0 mm 4 mps 753 mmHg 51%
    12:00 +27°C° 0 mm 4 mps 753 mmHg 49%
    13:00 +28°C° 0 mm 4 mps 752 mmHg 48%
    14:00 +27°C° 0 mm 5 mps 752 mmHg 50%
    15:00 +27°C° 0 mm 5 mps 752 mmHg 52%
    16:00 +26°C° 0 mm 5 mps 752 mmHg 54%
    17:00 +25°C° 0 mm 5 mps 752 mmHg 60%
    18:00 +23°C° 0 mm 4 mps 752 mmHg 67%
    19:00 +21°C° 0 mm 4 mps 752 mmHg 73%
    20:00 +21°C° 0 mm 4 mps 752 mmHg 78%
    21:00 +20°C° 0 mm 3 mps 752 mmHg 83%
    22:00 +19°C° 0 mm 3 mps 752 mmHg 88%
    23:00 +18°C° 0 mm 3 mps 752 mmHg 90%

    27 July, Saturday

    Time Temperature Precipitation Wind Pressure Humidity
    00:00 +18°C° 0 mm 3 mps 752 mmHg 92%
    01:00 +18°C° 0 mm 2 mps 752 mmHg 94%
    02:00 +18°C° 0 mm 2 mps 752 mmHg 95%
    03:00 +17°C° 0 mm 2 mps 752 mmHg 96%
    04:00 +17°C° 0 mm 2 mps 752 mmHg 97%
    05:00 +19°C° 0 mm 2 mps 752 mmHg 91%
    06:00 +20°C° 0 mm 3 mps 752 mmHg 84%
    07:00 +22°C° 0 mm 3 mps 752 mmHg 78%
    08:00 +24°C° 0 mm 3 mps 752 mmHg 70%
    09:00 +26°C° 0 mm 4 mps 753 mmHg 61%
    10:00 +28°C° 0 mm 4 mps 753 mmHg 53%
    11:00 +29°C° 0 mm 4 mps 752 mmHg 51%
    12:00 +30°C° 0 mm 4 mps 752 mmHg 49%
    13:00 +30°C° 0 mm 4 mps 752 mmHg 46%
    14:00 +30°C° 0 mm 4 mps 752 mmHg 47%
    15:00 +30°C° 0 mm 4 mps 752 mmHg 49%
    16:00 +30°C° 0 mm 4 mps 751 mmHg 50%
    17:00 +28°C° 0 mm 4 mps 751 mmHg 57%
    18:00 +27°C° 0 mm 4 mps 751 mmHg 64%
    19:00 +25°C° 0 mm 4 mps 751 mmHg 71%
    20:00 +24°C° 0 mm 3 mps 751 mmHg 76%
    21:00 +22°C° 0 mm 3 mps 752 mmHg 81%
    22:00 +20°C° 0 mm 2 mps 752 mmHg 86%
    23:00 +20°C° 0 mm 2 mps 752 mmHg 88%

    28 July, Sunday

    Time Temperature Precipitation Wind Pressure Humidity
    00:00 +20°C° 0 mm 2 mps 752 mmHg 89%
    01:00 +19°C° 0 mm 2 mps 752 mmHg 91%
    02:00 +19°C° 0 mm 2 mps 752 mmHg 92%
    03:00 +19°C° 0 mm 2 mps 752 mmHg 93%
    04:00 +19°C° 0 mm 2 mps 752 mmHg 94%
    05:00 +20°C° 0 mm 2 mps 752 mmHg 87%
    06:00 +23°C° 0 mm 2 mps 752 mmHg 79%
    07:00 +25°C° 0 mm 2 mps 752 mmHg 72%
    08:00 +27°C° 0 mm 2 mps 752 mmHg 65%
    09:00 +28°C° 0 mm 2 mps 752 mmHg 57%
    10:00 +30°C° 0 mm 3 mps 752 mmHg 50%
    11:00 +31°C° 0 mm 2 mps 752 mmHg 47%
    12:00 +31°C° 0 mm 2 mps 752 mmHg 44%
    13:00 +32°C° 0 mm 2 mps 752 mmHg 42%
    14:00 +32°C° 0 mm 2 mps 752 mmHg 44%
    15:00 +31°C° 0 mm 2 mps 751 mmHg 46%
    16:00 +31°C° 0 mm 2 mps 751 mmHg 49%
    17:00 +29°C° 0 mm 3 mps 751 mmHg 54%
    18:00 +28°C° 0 mm 3 mps 751 mmHg 60%
    19:00 +26°C° 0 mm 3 mps 751 mmHg 65%
    20:00 +25°C° 0 mm 3 mps 751 mmHg 70%
    21:00 +23°C° 0 mm 2 mps 751 mmHg 75%
    22:00 +21°C° 0 mm 2 mps 751 mmHg 80%
    23:00 +20°C° 0 mm 2 mps 752 mmHg 81%
    Show more